Welcome to our new website - Welkom op onze vernieuwde website - Bienvenue sur notre nouveau site web - Willkommen auf unserer neuen Website
Check our progress frequently. Prüfen Sie unsere Fortschritte regelmäßig. Consultez notre progression fréquemment. Komt u straks nog eens terug


Hej. Vi har købt ny vejrstation, og er ved at bygge en helt ny vejrside.
Kom snart tilbage og følg udviklingen.
Du kan også komme med kommentarer eller evt. ønsker via "Kontakt" i bunden.



Webcam more information Webcam


Rain radar more information rain snow radar


Visit our other weather sites:

Template documentation
and downloads

And another site



Select another period ( hide this area )

Units Period Custom range Directly to
Metric English Both
Daily Weekly Monthly Yearly
use both date-selectors for a custom range
previous Day
With this date

WeatherUnderground graphs for this period ( click here )


Daily Summary for Thursday 17 January 2019
Time Temp. ( °C ) Dew pt. ( °C ) Wind ( km/h ) from Gust ( km/h ) Pressure ( hPa ) Humid.( % ) Rainrate ( cm ) Solar ( W/m2 )
High5,6 4,2 43,6 WSW ( 825/2133 ) 48,3 991,4 91 1,50 49
Average4,1 2,5 16,4 WSW #52/130 26,3 989,8 89 1,20 24 #29/130
Low2,3 0,8 6,4   14,5 989,1 87 -  
Daily Tabular details for Thursday 17 January 2019
Time Temp. ( °C ) Dew pt. ( °C ) Wind ( km/h ) from Gust ( km/h ) Pressure ( hPa ) Humid.( % ) Rainrate ( cm ) Solar ( W/m2 )
00:04 5,5 4,1 17,7 SW 37,0 990,1 91 0,50 -
00:09 5,6 4,2 14,3 SW 30,6 990,1 91 0,50 -
00:14 5,6 4,2 17,7 SSW 32,2 990,1 91 0,50 -
00:19 5,5 4,1 32,0 SW 41,8 990,1 91 0,50 -
00:24 5,5 4,1 27,4 SW 41,8 989,7 91 0,50 -
00:29 5,4 4,0 24,1 SSW 41,8 989,7 91 0,50 -
00:34 5,4 4,0 14,3 SW 40,2 989,7 91 0,50 -
00:39 5,4 4,0 24,1 WSW 33,8 989,7 91 0,50 -
00:44 5,3 4,0 28,8 WNW 30,6 990,1 91 0,80 -
00:49 5,1 3,8 14,3 West 30,6 990,1 91 1,00 -
00:54 4,9 3,6 14,3 WSW 27,4 990,1 91 1,30 -
00:59 4,8 3,5 14,3 West 22,5 990,1 91 1,30 -
01:04 4,8 3,5 9,7 SW 24,1 990,1 91 1,50 -
01:09 4,7 3,4 22,7 West 29,0 990,1 91 1,50 -
01:14 4,7 3,4 22,7 SW 25,7 990,1 91 1,50 -
01:19 4,6 3,3 17,7 WSW 24,1 989,7 91 1,50 -
01:24 4,5 3,2 9,7 WSW 27,4 989,7 91 1,50 -
01:29 4,4 3,1 19,5 WSW 25,7 989,7 91 1,30 -
01:34 4,4 3,1 16,3 SW 25,7 989,7 91 1,30 -
01:39 4,3 3,0 14,3 WSW 30,6 989,7 91 1,00 -
01:44 4,3 3,0 7,9 WSW 17,7 989,7 91 0,80 -
01:49 4,3 2,8 22,7 WSW 29,0 989,7 90 0,50 -
01:54 4,2 2,7 19,5 WSW 29,0 989,7 90 0,50 -
01:59 4,2 2,7 11,1 West 24,1 989,4 90 0,50 -
02:04 4,2 2,7 20,9 WSW 24,1 989,1 90 0,30 -
02:09 4,2 2,7 20,9 WSW 25,7 989,1 90 0,30 -
02:14 4,2 2,7 16,3 WSW 22,5 989,7 90 - -
02:19 4,1 2,6 17,7 West 20,9 989,7 90 - -
02:24 4,2 2,7 17,7 SW 30,6 989,7 90 - -
02:29 4,1 2,6 9,7 WSW 32,2 989,7 90 - -
02:34 4,1 2,6 13,0 SW 32,2 989,7 90 - -
02:39 4,1 2,6 13,0 WSW 29,0 989,7 90 - -
02:44 4,1 2,6 20,9 WSW 27,4 989,7 90 - -
02:49 4,1 2,6 16,3 SW 29,0 989,4 90 - -
02:54 4,1 2,6 17,7 WSW 24,1 989,4 90 - -
02:59 4,1 2,6 22,7 SW 30,6 989,4 90 - -
03:04 4,1 2,6 7,9 WSW 30,6 989,4 90 - -
03:09 4,1 2,5 16,3 WSW 33,8 989,7 89 - -
03:14 4,1 2,5 22,7 WSW 27,4 989,4 89 - -
03:19 4,1 2,5 11,1 WSW 24,1 989,4 89 - -
03:24 4,1 2,5 13,0 WSW 22,5 989,7 89 - -
03:29 4,1 2,5 19,5 West 33,8 989,4 89 - -
03:34 4,1 2,5 14,3 SW 19,3 989,4 89 - -
03:39 4,1 2,5 13,0 WSW 22,5 989,4 89 - -
03:44 4,1 2,5 19,5 SW 33,8 989,4 89 - -
03:49 4,0 2,4 20,9 West 25,7 989,4 89 - -
03:54 4,1 2,5 9,7 WSW 25,7 989,7 89 - -
03:59 4,1 2,5 22,7 WSW 29,0 989,4 89 - -
04:04 4,1 2,5 9,7 SW 27,4 989,4 89 - -
04:09 4,1 2,5 14,3 WSW 30,6 989,4 89 - -
04:14 4,1 2,5 16,3 SW 25,7 989,1 89 - -
04:19 4,1 2,5 30,6 WSW 41,8 989,1 89 0,30 -
04:24 4,1 2,3 20,9 SW 27,4 989,1 88 0,30 -
04:29 4,1 2,3 20,9 WSW 24,1 989,1 88 0,30 -
04:34 4,1 2,3 11,1 WSW 22,5 989,1 88 0,30 -
04:39 4,2 2,4 24,1 SW 29,0 989,1 88 0,30 -
04:44 4,2 2,4 11,1 West 20,9 989,1 88 0,30 -
04:49 4,2 2,4 16,3 West 22,5 989,1 88 0,30 -
04:54 4,2 2,4 24,1 West 24,1 989,1 88 0,30 -
04:59 4,2 2,4 16,3 SSW 27,4 989,1 88 0,30 -
05:04 4,2 2,4 20,9 WSW 22,5 989,1 88 0,30 -
05:09 4,2 2,4 16,3 SW 32,2 989,1 88 0,30 -
05:14 4,2 2,4 22,7 West 33,8 989,1 88 0,30 -
05:19 4,3 2,5 14,3 WSW 19,3 989,4 88 - -
05:24 4,3 2,5 17,7 West 24,1 989,1 88 - -
05:29 4,3 2,5 16,3 WSW 24,1 989,4 88 - -
05:34 4,2 2,4 17,7 WSW 27,4 989,1 88 - -
05:39 4,2 2,4 16,3 SW 25,7 989,1 88 - -
05:44 4,2 2,2 6,4 SW 24,1 989,1 87 - -
05:49 4,2 2,2 9,7 SW 25,7 989,1 87 - -
05:54 4,2 2,2 14,3 SW 20,9 989,4 87 - -
05:59 4,2 2,2 33,8 SW 35,4 989,4 87 - -
06:04 4,2 2,2 17,7 West 22,5 989,4 87 - -
06:09 4,2 2,2 14,3 WSW 27,4 989,1 87 - -
06:14 4,2 2,2 16,3 West 25,7 989,1 87 - -
06:19 4,2 2,2 14,3 NW 32,2 989,1 87 - -
06:24 4,2 2,2 14,3 WSW 19,3 989,1 87 - -
06:29 4,2 2,2 11,1 SSW 22,5 989,1 87 - -
06:34 4,2 2,2 19,5 SW 30,6 989,1 87 - -
06:39 4,2 2,2 11,1 West 22,5 989,1 87 - -
06:44 4,2 2,2 14,3 WSW 25,7 989,1 87 - -
06:49 4,2 2,2 7,9 SW 29,0 989,1 87 - -
06:54 4,3 2,3 14,3 West 24,1 989,1 87 - -
06:59 4,2 2,2 20,9 West 22,5 989,1 87 - -
07:04 4,3 2,3 13,0 West 24,1 989,1 87 - -
07:09 4,3 2,3 14,3 WSW 20,9 989,1 87 - -
07:14 4,3 2,3 7,9 SW 27,4 989,1 87 - -
07:19 4,3 2,3 17,7 WSW 27,4 989,1 87 - -
07:24 4,3 2,3 16,3 West 24,1 989,4 87 - -
07:29 4,3 2,3 7,9 SW 19,3 989,4 87 - -
07:34 4,3 2,3 24,1 WSW 29,0 989,4 87 - -
07:39 4,2 2,2 16,3 WSW 40,2 989,7 87 - -
07:44 3,8 1,8 43,6 West 48,3 989,4 87 - -
07:49 3,6 1,8 28,8 West 30,6 989,7 88 - -
07:54 3,6 1,8 22,7 WSW 22,5 989,7 88 0,30 -
07:59 3,5 1,9 25,9 SW 29,0 989,7 89 0,30 -
08:04 3,5 1,9 11,1 West 20,9 989,7 89 0,30 -
08:09 3,6 2,1 14,3 West 22,5 989,7 90 0,30 -
08:14 3,6 2,1 14,3 WSW 22,5 989,7 90 0,30 -
08:19 3,6 2,1 13,0 WNW 17,7 989,7 90 0,50 -
08:24 3,6 2,1 11,1 West 17,7 989,7 90 0,50 -
08:29 3,7 2,2 16,3 West 24,1 990,1 90 0,50 7
08:34 3,7 2,4 16,3 WSW 25,7 990,1 91 0,50 9
08:39 3,7 2,4 16,3 West 25,7 990,1 91 0,50 11
08:44 3,7 2,2 20,9 West 38,6 990,4 90 0,50 11
08:49 3,7 2,2 17,7 WNW 29,0 990,4 90 0,50 12
08:54 3,6 2,1 11,1 SW 24,1 990,4 90 0,30 12
08:59 3,6 2,1 17,7 West 20,9 990,4 90 0,30 16
09:04 3,6 2,1 14,3 West 25,7 990,7 90 0,30 18
09:09 3,6 2,1 14,3 West 22,5 990,7 90 0,30 14
09:14 3,6 2,1 14,3 West 19,3 990,7 90 0,30 18
09:19 3,6 2,3 6,4 WSW 16,1 990,7 91 - 37
09:24 3,6 2,3 9,7 West 22,5 990,7 91 - 47
09:29 3,7 2,4 14,3 West 19,3 990,7 91 - 26
09:34 3,6 2,3 16,3 WSW 24,1 990,7 91 0,30 49
09:39 3,6 2,1 19,5 West 30,6 990,7 90 0,30 39
09:44 3,4 1,9 11,1 West 17,7 991,1 90 0,30 39
09:49 3,4 2,1 17,7 West 24,1 991,1 91 0,30 23
09:54 3,4 2,1 9,7 SW 17,7 991,1 91 0,50 23
09:59 3,4 2,1 13,0 West 24,1 991,1 91 0,50 33
10:04 3,4 2,1 20,9 WSW 20,9 991,1 91 0,50 25
10:09 3,4 2,1 13,0 WSW 24,1 991,1 91 0,50 25
10:14 3,3 2,0 7,9 WSW 22,5 991,1 91 0,50 30
10:19 3,3 2,0 14,3 WSW 24,1 991,4 91 0,50 12
10:24 3,2 1,9 11,1 SW 20,9 991,4 91 0,50 12
10:29 3,1 1,8 14,3 WSW 25,7 991,4 91 1,00 16
10:34 2,9 1,4 7,9 SW 17,7 991,4 90 1,30 25
10:39 2,7 1,2 7,9 WSW 19,3 991,4 90 1,50 32
10:44 2,5 1,0 11,1 WSW 14,5 991,4 90 1,50 28
10:49 2,3 0,8 13,0 WSW 17,7 991,4 90 1,50 33
Daily Summary for Thursday 17 January 2019
Time Temp. ( °C ) Dew pt. ( °C ) Wind ( km/h ) from Gust ( km/h ) Pressure ( hPa ) Humid.( % ) Rainrate ( cm ) Solar ( W/m2 )
High5,6 4,2 43,6 WSW ( 825/2133 ) 48,3 991,4 91 1,50 49
Average4,1 2,5 16,4 WSW #52/130 26,3 989,8 89 1,20 24 #29/130
Low2,3 0,8 6,4   14,5 989,1 87 -  
Daily Tabular details for Thursday 17 January 2019
Time Temp. ( °C ) Dew pt. ( °C ) Wind ( km/h ) from Gust ( km/h ) Pressure ( hPa ) Humid.( % ) Rainrate ( cm ) Solar ( W/m2 )
00:04 5,5 4,1 17,7 SW 37,0 990,1 91 0,50 -
00:09 5,6 4,2 14,3 SW 30,6 990,1 91 0,50 -
00:14 5,6 4,2 17,7 SSW 32,2 990,1 91 0,50 -
00:19 5,5 4,1 32,0 SW 41,8 990,1 91 0,50 -
00:24 5,5 4,1 27,4 SW 41,8 989,7 91 0,50 -
00:29 5,4 4,0 24,1 SSW 41,8 989,7 91 0,50 -
00:34 5,4 4,0 14,3 SW 40,2 989,7 91 0,50 -
00:39 5,4 4,0 24,1 WSW 33,8 989,7 91 0,50 -
00:44 5,3 4,0 28,8 WNW 30,6 990,1 91 0,80 -
00:49 5,1 3,8 14,3 West 30,6 990,1 91 1,00 -
00:54 4,9 3,6 14,3 WSW 27,4 990,1 91 1,30 -
00:59 4,8 3,5 14,3 West 22,5 990,1 91 1,30 -
01:04 4,8 3,5 9,7 SW 24,1 990,1 91 1,50 -
01:09 4,7 3,4 22,7 West 29,0 990,1 91 1,50 -
01:14 4,7 3,4 22,7 SW 25,7 990,1 91 1,50 -
01:19 4,6 3,3 17,7 WSW 24,1 989,7 91 1,50 -
01:24 4,5 3,2 9,7 WSW 27,4 989,7 91 1,50 -
01:29 4,4 3,1 19,5 WSW 25,7 989,7 91 1,30 -
01:34 4,4 3,1 16,3 SW 25,7 989,7 91 1,30 -
01:39 4,3 3,0 14,3 WSW 30,6 989,7 91 1,00 -
01:44 4,3 3,0 7,9 WSW 17,7 989,7 91 0,80 -
01:49 4,3 2,8 22,7 WSW 29,0 989,7 90 0,50 -
01:54 4,2 2,7 19,5 WSW 29,0 989,7 90 0,50 -
01:59 4,2 2,7 11,1 West 24,1 989,4 90 0,50 -
02:04 4,2 2,7 20,9 WSW 24,1 989,1 90 0,30 -
02:09 4,2 2,7 20,9 WSW 25,7 989,1 90 0,30 -
02:14 4,2 2,7 16,3 WSW 22,5 989,7 90 - -
02:19 4,1 2,6 17,7 West 20,9 989,7 90 - -
02:24 4,2 2,7 17,7 SW 30,6 989,7 90 - -
02:29 4,1 2,6 9,7 WSW 32,2 989,7 90 - -
02:34 4,1 2,6 13,0 SW 32,2 989,7 90 - -
02:39 4,1 2,6 13,0 WSW 29,0 989,7 90 - -
02:44 4,1 2,6 20,9 WSW 27,4 989,7 90 - -
02:49 4,1 2,6 16,3 SW 29,0 989,4 90 - -
02:54 4,1 2,6 17,7 WSW 24,1 989,4 90 - -
02:59 4,1 2,6 22,7 SW 30,6 989,4 90 - -
03:04 4,1 2,6 7,9 WSW 30,6 989,4 90 - -
03:09 4,1 2,5 16,3 WSW 33,8 989,7 89 - -
03:14 4,1 2,5 22,7 WSW 27,4 989,4 89 - -
03:19 4,1 2,5 11,1 WSW 24,1 989,4 89 - -
03:24 4,1 2,5 13,0 WSW 22,5 989,7 89 - -
03:29 4,1 2,5 19,5 West 33,8 989,4 89 - -
03:34 4,1 2,5 14,3 SW 19,3 989,4 89 - -
03:39 4,1 2,5 13,0 WSW 22,5 989,4 89 - -
03:44 4,1 2,5 19,5 SW 33,8 989,4 89 - -
03:49 4,0 2,4 20,9 West 25,7 989,4 89 - -
03:54 4,1 2,5 9,7 WSW 25,7 989,7 89 - -
03:59 4,1 2,5 22,7 WSW 29,0 989,4 89 - -
04:04 4,1 2,5 9,7 SW 27,4 989,4 89 - -
04:09 4,1 2,5 14,3 WSW 30,6 989,4 89 - -
04:14 4,1 2,5 16,3 SW 25,7 989,1 89 - -
04:19 4,1 2,5 30,6 WSW 41,8 989,1 89 0,30 -
04:24 4,1 2,3 20,9 SW 27,4 989,1 88 0,30 -
04:29 4,1 2,3 20,9 WSW 24,1 989,1 88 0,30 -
04:34 4,1 2,3 11,1 WSW 22,5 989,1 88 0,30 -
04:39 4,2 2,4 24,1 SW 29,0 989,1 88 0,30 -
04:44 4,2 2,4 11,1 West 20,9 989,1 88 0,30 -
04:49 4,2 2,4 16,3 West 22,5 989,1 88 0,30 -
04:54 4,2 2,4 24,1 West 24,1 989,1 88 0,30 -
04:59 4,2 2,4 16,3 SSW 27,4 989,1 88 0,30 -
05:04 4,2 2,4 20,9 WSW 22,5 989,1 88 0,30 -
05:09 4,2 2,4 16,3 SW 32,2 989,1 88 0,30 -
05:14 4,2 2,4 22,7 West 33,8 989,1 88 0,30 -
05:19 4,3 2,5 14,3 WSW 19,3 989,4 88 - -
05:24 4,3 2,5 17,7 West 24,1 989,1 88 - -
05:29 4,3 2,5 16,3 WSW 24,1 989,4 88 - -
05:34 4,2 2,4 17,7 WSW 27,4 989,1 88 - -
05:39 4,2 2,4 16,3 SW 25,7 989,1 88 - -
05:44 4,2 2,2 6,4 SW 24,1 989,1 87 - -
05:49 4,2 2,2 9,7 SW 25,7 989,1 87 - -
05:54 4,2 2,2 14,3 SW 20,9 989,4 87 - -
05:59 4,2 2,2 33,8 SW 35,4 989,4 87 - -
06:04 4,2 2,2 17,7 West 22,5 989,4 87 - -
06:09 4,2 2,2 14,3 WSW 27,4 989,1 87 - -
06:14 4,2 2,2 16,3 West 25,7 989,1 87 - -
06:19 4,2 2,2 14,3 NW 32,2 989,1 87 - -
06:24 4,2 2,2 14,3 WSW 19,3 989,1 87 - -
06:29 4,2 2,2 11,1 SSW 22,5 989,1 87 - -
06:34 4,2 2,2 19,5 SW 30,6 989,1 87 - -
06:39 4,2 2,2 11,1 West 22,5 989,1 87 - -
06:44 4,2 2,2 14,3 WSW 25,7 989,1 87 - -
06:49 4,2 2,2 7,9 SW 29,0 989,1 87 - -
06:54 4,3 2,3 14,3 West 24,1 989,1 87 - -
06:59 4,2 2,2 20,9 West 22,5 989,1 87 - -
07:04 4,3 2,3 13,0 West 24,1 989,1 87 - -
07:09 4,3 2,3 14,3 WSW 20,9 989,1 87 - -
07:14 4,3 2,3 7,9 SW 27,4 989,1 87 - -
07:19 4,3 2,3 17,7 WSW 27,4 989,1 87 - -
07:24 4,3 2,3 16,3 West 24,1 989,4 87 - -
07:29 4,3 2,3 7,9 SW 19,3 989,4 87 - -
07:34 4,3 2,3 24,1 WSW 29,0 989,4 87 - -
07:39 4,2 2,2 16,3 WSW 40,2 989,7 87 - -
07:44 3,8 1,8 43,6 West 48,3 989,4 87 - -
07:49 3,6 1,8 28,8 West 30,6 989,7 88 - -
07:54 3,6 1,8 22,7 WSW 22,5 989,7 88 0,30 -
07:59 3,5 1,9 25,9 SW 29,0 989,7 89 0,30 -
08:04 3,5 1,9 11,1 West 20,9 989,7 89 0,30 -
08:09 3,6 2,1 14,3 West 22,5 989,7 90 0,30 -
08:14 3,6 2,1 14,3 WSW 22,5 989,7 90 0,30 -
08:19 3,6 2,1 13,0 WNW 17,7 989,7 90 0,50 -
08:24 3,6 2,1 11,1 West 17,7 989,7 90 0,50 -
08:29 3,7 2,2 16,3 West 24,1 990,1 90 0,50 7
08:34 3,7 2,4 16,3 WSW 25,7 990,1 91 0,50 9
08:39 3,7 2,4 16,3 West 25,7 990,1 91 0,50 11
08:44 3,7 2,2 20,9 West 38,6 990,4 90 0,50 11
08:49 3,7 2,2 17,7 WNW 29,0 990,4 90 0,50 12
08:54 3,6 2,1 11,1 SW 24,1 990,4 90 0,30 12
08:59 3,6 2,1 17,7 West 20,9 990,4 90 0,30 16
09:04 3,6 2,1 14,3 West 25,7 990,7 90 0,30 18
09:09 3,6 2,1 14,3 West 22,5 990,7 90 0,30 14
09:14 3,6 2,1 14,3 West 19,3 990,7 90 0,30 18
09:19 3,6 2,3 6,4 WSW 16,1 990,7 91 - 37
09:24 3,6 2,3 9,7 West 22,5 990,7 91 - 47
09:29 3,7 2,4 14,3 West 19,3 990,7 91 - 26
09:34 3,6 2,3 16,3 WSW 24,1 990,7 91 0,30 49
09:39 3,6 2,1 19,5 West 30,6 990,7 90 0,30 39
09:44 3,4 1,9 11,1 West 17,7 991,1 90 0,30 39
09:49 3,4 2,1 17,7 West 24,1 991,1 91 0,30 23
09:54 3,4 2,1 9,7 SW 17,7 991,1 91 0,50 23
09:59 3,4 2,1 13,0 West 24,1 991,1 91 0,50 33
10:04 3,4 2,1 20,9 WSW 20,9 991,1 91 0,50 25
10:09 3,4 2,1 13,0 WSW 24,1 991,1 91 0,50 25
10:14 3,3 2,0 7,9 WSW 22,5 991,1 91 0,50 30
10:19 3,3 2,0 14,3 WSW 24,1 991,4 91 0,50 12
10:24 3,2 1,9 11,1 SW 20,9 991,4 91 0,50 12
10:29 3,1 1,8 14,3 WSW 25,7 991,4 91 1,00 16
10:34 2,9 1,4 7,9 SW 17,7 991,4 90 1,30 25
10:39 2,7 1,2 7,9 WSW 19,3 991,4 90 1,50 32
10:44 2,5 1,0 11,1 WSW 14,5 991,4 90 1,50 28
10:49 2,3 0,8 13,0 WSW 17,7 991,4 90 1,50 33

Download your copy of this data-set  here

Our weather-data as stored at Weather Underground. Script developed by Jim McMurry. Adapted for the template by Leuven-Template.eu

You find our weather info also at:

European Weather Network

Weather Underground

European Weather Network

Equipment we use:

Weather-station
Davis VP2

Weather-program
Weather Display

Davis VP2

Weather Display



Hej. Vi har købt ny vejrstation, og er ved at bygge en helt ny vejrside.
Kom snart tilbage og følg udviklingen.
Du kan også komme med kommentarer eller evt. ønsker via "Kontakt" i bunden.